Location: Kopernik Observatory
(42.0014°N, 76.0372°W)
Time: 18:20:52
(UTC-04:00)

Daily predictions for brighter satellites

Satellite Brightness Start Highest point End
(mag) Time Altitude Azimuth Time Altitude Azimuth Time Altitude Azimuth
Meteor 1-20 Rocket 4.2 20:18:16 10° S 20:23:50 85° E 20:29:20 10° N
NOSS 3-1 (A) 3.6 20:19:04 10° SW 20:24:49 83° NW 20:31:21 10° NE
Cosmos 1939 Rocket 4.0 20:21:45 10° SE 20:25:04 26° ENE 20:28:22 10° NNE
Okean 1 3.3 20:21:29 10° N 20:25:27 64° E 20:29:24 10° SSE
Cosmos 405 Rocket 4.1 20:24:04 10° NNW 20:27:43 43° W 20:31:25 10° SSW
Cosmos 1452 Rocket 3.6 20:23:07 10° S 20:28:17 59° ESE 20:33:29 10° NNE
Cosmos 1536 4.3 20:27:58 10° SE 20:30:54 19° E 20:33:50 10° NE
Lacrosse 5 rocket 1.1 20:27:53 10° NW 20:31:34 87° NE 20:35:24 10° SE
Cosmos 1420 Rocket 4.3 20:26:47 10° S 20:31:37 43° ESE 20:36:30 10° NNE
Cosmos 1633 2.5 20:28:22 10° S 20:31:57 74° E 20:35:36 10° NNE
Cosmos 407 Rocket 4.0 20:26:59 10° NNW 20:32:18 68° WSW 20:37:33 10° S
S3M 4.3 20:28:20 10° N 20:34:26 50° ENE 20:40:32 10° SSE
Cosmos 1553 Rocket 4.1 20:30:53 10° N 20:36:57 56° E 20:42:54 10° SSE
YAOGAN 6 3.9 20:34:35 10° ESE 20:37:25 23° ENE 20:40:14 10° NNE
Cosmos 1782 Rocket 4.5 20:35:19 10° SSW 20:39:33 53° W 20:43:49 10° N
Cosmos 921 Rocket 3.5 20:36:00 10° SSW 20:40:08 64° WNW 20:44:18 10° N
MINOTAUR R/B 4.3 20:37:41 10° NNW 20:40:26 62° ENE 20:43:10 10° SSE
Okean 1 Rocket 4.5 20:38:55 10° SE 20:42:00 19° E 20:45:06 10° NE
Helios 1B rocket 3.7 20:40:10 10° NE 20:43:18 21° E 20:46:25 10° SE
Cosmos 2360 Rocket 3.6 20:40:29 10° SE 20:44:01 17° E 20:47:33 10° ENE
Cosmos 1980 Rocket 2.8 20:39:06 10° SW 20:44:39 64° WNW 20:50:15 10° NNE
Resurs 01 Rocket 1.8 20:41:05 10° S 20:45:32 78° WSW 20:50:01 10° NNW
Cosmos 1300 Rocket 4.3 20:43:01 10° SSE 20:46:49 31° E 20:50:38 10° NNE
Cosmos 676 Rocket 4.4 20:47:19 10° NNW 20:52:37 67° WSW 20:57:53 10° S
Tiangong 1 0.8 20:50:32 10° W 20:53:20 77° N 20:55:23 16° E
SeaSat 1 2.4 20:49:25 10° NNE 20:54:22 67° ESE 20:59:15 10° SSW
Cosmos 1975 Rocket 4.5 20:50:58 10° NNW 20:55:10 41° W 20:59:19 10° SSW
Meteor 1-13 Rocket 4.3 20:50:16 10° N 20:56:15 73° E 21:02:11 10° SSE
CZ-2D R/B 4.4 20:53:26 10° S 20:57:09 45° W 21:00:52 10° NNW
Meteor 2-4 Rocket 3.9 20:52:46 10° N 20:58:11 53° ENE 21:03:44 10° SSE
Cosmos 2151 Rocket 3.5 20:53:57 10° S 20:58:19 78° E 21:02:44 10° N
Cosmos 44 3.7 20:56:06 10° NW 21:00:26 55° WSW 21:04:55 10° SSE
Lacrosse 5 2.6 20:57:16 10° S 21:01:41 31° SE 21:06:07 10° ENE
NOSS 2-3 (C) 4.0 20:57:55 10° SSW 21:02:23 48° ESE 21:07:30 10° NE
DELTA 2 R/B (1) 4.3 20:58:40 10° W 21:03:55 42° SSW 21:07:58 16° SE
Cosmos 1140 Rocket 3.7 20:59:34 10° NNW 21:04:49 75° WSW 21:10:02 10° SSE
Spot 2 Rocket 4.0 21:00:25 10° S 21:05:27 60° WSW 21:10:31 10° NNW
EXPRESS MD2 3.1 21:04:08 10° WSW 21:06:42 71° NNW 21:11:12 10° ENE
Cosmos 614 Rocket 4.1 21:05:28 10° NNW 21:10:36 77° WSW 21:15:43 10° SSE
Atlas Centaur 2 3.7 21:03:55 10° WSW 21:11:00 33° S 21:15:23 18° SE
CZ-4B DEB 3.2 21:16:27 31° ESE 21:17:05 36° ENE 21:19:46 10° N
ERBS 4.5 21:15:46 10° W 21:18:51 29° NW 21:21:56 10° NNE
Okean 2 4.4 21:15:40 10° NNE 21:19:12 27° ENE 21:20:18 24° ESE
Cosmos 1536 Rocket 3.7 21:15:11 10° NNW 21:19:31 74° W 21:23:50 10° S
Helios 1A 2.9 21:21:39 18° SSE 21:24:47 81° ENE 21:29:03 10° N
Meteor 1-29 3.2 21:22:47 10° NNE 21:26:06 46° E 21:27:14 32° SSE
SAR-Lupe-4 4.0 21:27:40 34° ESE 21:28:44 45° ENE 21:32:11 10° N
ERS-1 Rocket 3.2 21:26:23 24° SE 21:29:11 52° ENE 21:34:03 10° N
Cosmos 1741 Rocket 4.0 21:24:23 10° NNW 21:29:40 84° WSW 21:33:28 19° SSE
H-2A R/B 3.1 21:29:52 22° E 21:31:28 27° ENE 21:35:36 10° N
BREEZE M DEB (TANK) 3.2 21:25:33 10° SW 21:33:49 39° SSE 21:34:57 32° ESE
ATLAS 3B R/B 3.2 21:28:04 10° NNW 21:34:33 45° NE 21:38:05 25° ESE
Envisat 4.2 21:29:52 10° SSW 21:34:38 41° W 21:39:27 10° NNW
Meteor 1-11 Rocket 4.2 21:29:13 10° SSW 21:35:02 66° WNW 21:40:45 10° N
GPS 2-05 Rocket1 4.1 21:33:01 10° WSW 21:35:41 25° S 21:35:41 25° S
NOSS 2-3 (D) 3.9 21:37:25 10° SW 21:42:05 82° NW 21:47:34 10° NE
Abrixas rocket 4.2 21:42:34 10° WNW 21:45:23 25° N 21:47:01 17° NE
SAR-Lupe-1 4.0 21:45:10 53° ESE 21:45:42 62° ENE 21:49:15 10° N
Cosmos 1975 4.3 21:47:28 23° ENE 21:47:28 23° ENE 21:49:44 10° NNE
SL-08 RB Rocket 4.3 21:45:28 35° ESE 21:46:28 41° ENE 21:50:44 10° N
SL-8 R/B 4.5 21:42:18 10° WNW 21:46:56 46° NNE 21:49:26 24° ENE
ARGOS 3.3 21:45:46 33° SE 21:47:59 57° ENE 21:53:14 10° N
Terra 3.5 21:50:12 18° ENE 21:50:34 18° ENE 21:53:44 10° NNE
Cosmos 2278 Rocket 4.3 21:48:34 10° NNE 21:51:13 13° NE 21:53:24 11° ENE
Cosmos 2263 Rocket 2.4 21:47:03 10° NNW 21:52:44 68° WSW 21:55:52 27° S
Cosmos 2322 Rocket 3.1 21:47:55 10° SW 21:53:28 51° WNW 21:59:02 10° NNE
Meteor 1-23 Rocket 4.5 21:53:28 10° NNW 21:58:59 65° W 22:02:41 21° S
Cosmos 1844 Rocket 3.6 21:55:29 10° N 22:00:36 33° ENE 22:02:00 29° E
Cosmos 1244 Rocket 4.4 21:59:55 30° SSE 22:03:02 67° E 22:09:08 10° NNE
Cosmos 1455 Rocket 4.3 22:04:09 28° ENE 22:04:09 28° ENE 22:07:02 10° NNE
Cosmos 1110 Rocket 3.8 21:58:42 12° SSW 22:03:33 86° ESE 22:08:45 10° NNE
SL-16 R/B 3.4 21:58:54 10° SW 22:04:15 43° WNW 22:09:39 10° NNE
Cosmos 1515 3.5 22:04:02 10° N 22:07:52 86° E 22:07:55 85° ESE
ATLAS 2AS CENTAUR R/B 3.1 22:00:47 10° SW 22:08:30 82° NW 22:16:42 10° NE
Cosmos 2322 3.5 22:08:47 17° SSW 22:13:17 79° ESE 22:18:59 10° NNE
Cosmos 2219 Rocket 3.8 22:16:11 20° ENE 22:16:11 20° ENE 22:18:28 10° NE
Cosmos 1331 Rocket 4.0 22:14:52 19° SSW 22:18:37 80° WNW 22:23:52 10° NNE
Helios 1B rocket 4.2 22:14:58 10° N 22:18:38 31° WNW 22:22:16 10° SW
Cosmos 1238 Rocket 4.0 22:12:31 10° N 22:19:18 76° E 22:21:21 46° SSE
MetOp-B 4.4 22:19:54 36° SSW 22:21:59 62° WSW 22:27:18 10° NNW
COSMOS 2428 2.9 22:22:19 50° E 22:22:19 50° E 22:27:36 10° NE
Cosmos 1500 3.4 22:24:18 69° NNW 22:24:18 69° NNW 22:27:49 10° N
SL-08 R/B 4.5 22:22:32 49° SE 22:24:01 63° E 22:30:16 10° NNE
Cosmos 1607 4.5 22:17:59 10° NW 22:24:14 53° WSW 22:26:39 35° S
Okean 1-7 Rocket 4.4 22:20:59 10° NNW 22:25:18 47° W 22:26:34 36° SW
Aureole 3 Rocket 4.3 22:17:41 10° N 22:26:29 82° E 22:28:50 46° SSE
Cosmos 2360 Rocket 2.5 22:21:48 10° SSW 22:27:23 66° WNW 22:33:01 10° NNE
Tiangong 1 3.9 22:26:04 10° W 22:26:22 12° W 22:26:22 12° W
YAOGAN 11 4.0 22:28:58 84° W 22:28:58 84° W 22:33:19 10° NNW
Cosmos 1025 Rocket 4.3 22:27:56 10° NNW 22:31:50 36° W 22:32:55 30° WSW
Cosmos 1844 4.2 22:27:07 10° NNW 22:32:34 45° ENE 22:33:04 44° ENE
SPOT 1/Viking Rocket 3.4 22:31:56 70° SSE 22:32:34 88° ENE 22:37:50 10° NNW
Cosmos 2333 Rocket 3.7 22:38:20 22° ENE 22:38:20 22° ENE 22:40:41 10° NE
SPOT 5 3.0 22:35:22 58° SW 22:36:00 65° WSW 22:40:42 10° NNW
Lacrosse 5 2.7 22:39:33 10° WSW 22:44:28 49° NW 22:49:25 10° NE
Cosmos 2333 4.1 22:44:53 69° E 22:44:53 69° E 22:50:07 10° NNE
BREEZE-M DEB 3.7 22:41:08 10° WNW 22:46:59 50° N 22:46:59 50° N
Nimbus 7 Rocket 4.3 22:41:40 10° NNE 22:47:35 90° W 22:48:39 62° SSW
H-2A R/B 3.7 22:50:04 26° NE 22:50:04 26° NE 22:52:38 10° N
Cosmos 1503 Rocket 4.3 22:48:36 10° NNW 22:53:32 59° NE 22:53:32 59° NE
Cosmos 1745 Rocket 3.8 22:55:56 72° S 22:56:38 89° W 23:02:49 10° N
Cosmos 2237 Rocket 4.0 23:00:29 19° NE 23:00:29 19° NE 23:02:22 10° NE
Atlas Centaur 2 4.2 22:54:12 10° WSW 22:58:01 20° SW 22:58:01 20° SW
NOSS 3-2 (A) 3.9 22:57:18 10° NNW 23:04:50 78° NE 23:06:18 62° ESE
USA 238 DEB 3.9 22:58:33 10° NW 23:05:32 62° WSW 23:06:30 57° SSW
USA 238 3.9 22:58:38 10° NW 23:05:38 63° WSW 23:06:37 58° SSW
H-2A R/B 3.0 23:10:30 37° WSW 23:10:43 37° W 23:15:22 10° NNW
Meteor 1-21 4.3 23:10:30 10° N 23:15:35 74° NNW 23:15:35 74° NNW
Cosmos 724 4.4 23:18:27 10° NNW 23:23:40 71° NW 23:23:40 71° NW
ATLAS 3B R/B 3.4 23:19:02 10° NW 23:25:05 38° WSW 23:25:20 37° WSW
Terra 2.9 23:29:05 42° NW 23:29:05 42° NW 23:32:33 10° NNW
Cosmos 2278 Rocket 2.7 23:30:40 10° NNW 23:35:15 57° N 23:35:15 57° N
NOSS 3-2 (C) 3.9 23:35:02 10° NW 23:42:37 84° WSW 23:42:56 82° SSW
Cosmos 1844 Rocket 3.8 23:39:18 10° NW 23:43:39 36° W 23:43:39 36° W
ATLAS CENTAUR R/B 4.3 23:45:33 10° N 23:45:53 11° NNE 23:45:53 11° NNE
